Time,TemperatureF,DewpointF,PressureIn,WindDirection,WindDirectionDegrees,WindSpeedMPH,WindSpeedGustMPH,Humidity,HourlyPrecipIn,Conditions,Clouds,dailyrainin,SoftwareType,DateUTC
2013-03-04 00:01:00,34.0,18.0,-100.00,SW,219,4.0,10.0,51,-99.99,,,-99.99,,2013-03-04 00:01:00,
2013-03-04 00:11:00,34.0,18.0,-100.00,SW,219,4.0,10.0,51,-99.99,,,-99.99,,2013-03-04 00:11:00,
2013-03-04 00:21:00,34.0,18.0,-100.00,SSW,202,1.0,5.0,51,-99.99,,,-99.99,,2013-03-04 00:21:00,
2013-03-04 00:32:00,33.0,17.0,-100.00,SE,127,7.0,12.0,52,-99.99,,,-99.99,,2013-03-04 00:32:00,
2013-03-04 00:42:00,33.0,17.0,-100.00,SE,127,7.0,12.0,52,-99.99,,,-99.99,,2013-03-04 00:42:00,
2013-03-04 00:51:00,33.0,17.0,-100.00,SE,127,7.0,12.0,52,-99.99,,,-99.99,,2013-03-04 00:51:00,
2013-03-04 01:01:00,33.0,17.0,-100.00,SE,127,7.0,12.0,52,-99.99,,,-99.99,,2013-03-04 01:01:00,
2013-03-04 01:32:00,32.0,17.0,-100.00,SSW,194,5.0,17.0,53,-99.99,,,-99.99,,2013-03-04 01:32:00,
2013-03-04 01:42:00,32.0,17.0,-100.00,SSW,194,5.0,17.0,53,-99.99,,,-99.99,,2013-03-04 01:42:00,
2013-03-04 01:52:00,32.0,17.0,-100.00,SSW,194,5.0,17.0,53,-99.99,,,-99.99,,2013-03-04 01:52:00,
2013-03-04 02:01:00,31.0,17.0,-100.00,SSE,148,6.0,13.0,55,-99.99,,,-99.99,,2013-03-04 02:01:00,
2013-03-04 02:11:00,31.0,17.0,-100.00,SSE,148,6.0,13.0,55,-99.99,,,-99.99,,2013-03-04 02:11:00,
2013-03-04 02:22:00,31.0,16.0,-100.00,SSW,192,4.0,10.0,54,-99.99,,,-99.99,,2013-03-04 02:22:00,
2013-03-04 02:31:00,31.0,18.0,-100.00,SE,146,6.0,17.0,57,-99.99,,,-99.99,,2013-03-04 02:31:00,
2013-03-04 02:41:00,31.0,18.0,-100.00,SE,146,6.0,17.0,57,-99.99,,,-99.99,,2013-03-04 02:41:00,
2013-03-04 02:52:00,32.0,17.0,-100.00,South,174,4.0,17.0,53,-99.99,,,-99.99,,2013-03-04 02:52:00,
2013-03-04 03:01:00,32.0,19.0,-100.00,South,169,3.0,11.0,58,-99.99,,,-99.99,,2013-03-04 03:01:00,
2013-03-04 03:11:00,32.0,19.0,-100.00,South,169,3.0,11.0,58,-99.99,,,-99.99,,2013-03-04 03:11:00,
2013-03-04 03:21:00,32.0,19.0,-100.00,South,185,3.0,10.0,58,-99.99,,,-99.99,,2013-03-04 03:21:00,
2013-03-04 03:31:00,32.0,19.0,-100.00,South,185,3.0,10.0,58,-99.99,,,-99.99,,2013-03-04 03:31:00,
2013-03-04 03:41:00,31.0,18.0,-100.00,South,177,7.0,13.0,59,-99.99,,,-99.99,,2013-03-04 03:41:00,
2013-03-04 03:52:00,31.0,18.0,-100.00,South,177,7.0,13.0,59,-99.99,,,-99.99,,2013-03-04 03:52:00,
2013-03-04 04:01:00,32.0,18.0,-100.00,ENE,76,3.0,8.0,55,-99.99,,,-99.99,,2013-03-04 04:01:00,
2013-03-04 04:11:00,32.0,18.0,-100.00,ENE,76,3.0,8.0,55,-99.99,,,-99.99,,2013-03-04 04:11:00,
2013-03-04 04:22:00,30.0,16.0,-100.00,SE,146,3.0,7.0,55,-99.99,,,-99.99,,2013-03-04 04:22:00,
2013-03-04 04:31:00,30.0,16.0,-100.00,SE,146,3.0,7.0,55,-99.99,,,-99.99,,2013-03-04 04:31:00,
2013-03-04 04:42:00,30.0,16.0,-100.00,SE,146,3.0,7.0,55,-99.99,,,-99.99,,2013-03-04 04:42:00,
2013-03-04 04:51:00,30.0,16.0,-100.00,SE,146,3.0,7.0,55,-99.99,,,-99.99,,2013-03-04 04:51:00,
2013-03-04 05:01:00,31.0,17.0,-100.00,South,182,4.0,7.0,56,-99.99,,,-99.99,,2013-03-04 05:01:00,
2013-03-04 05:11:00,31.0,17.0,-100.00,South,182,4.0,7.0,56,-99.99,,,-99.99,,2013-03-04 05:11:00,
2013-03-04 05:22:00,31.0,18.0,-100.00,NW,324,6.0,16.0,57,-99.99,,,-99.99,,2013-03-04 05:22:00,
2013-03-04 05:31:00,32.0,18.0,-100.00,SSW,205,3.0,9.0,55,-99.99,,,-99.99,,2013-03-04 05:31:00,
2013-03-04 05:42:00,32.0,18.0,-100.00,SSW,205,3.0,9.0,55,-99.99,,,-99.99,,2013-03-04 05:42:00,
2013-03-04 05:52:00,31.0,18.0,-100.00,East,96,3.0,9.0,58,-99.99,,,-99.99,,2013-03-04 05:52:00,
2013-03-04 06:01:00,32.0,19.0,-100.00,SSE,152,1.0,6.0,59,-99.99,,,-99.99,,2013-03-04 06:01:00,
2013-03-04 06:11:00,32.0,19.0,-100.00,SSE,152,1.0,6.0,59,-99.99,,,-99.99,,2013-03-04 06:11:00,
2013-03-04 06:21:00,32.0,19.0,-100.00,SE,129,3.0,11.0,58,-99.99,,,-99.99,,2013-03-04 06:21:00,
2013-03-04 06:31:00,32.0,19.0,-100.00,SE,129,3.0,11.0,58,-99.99,,,-99.99,,2013-03-04 06:31:00,
2013-03-04 06:42:00,32.0,19.0,-100.00,SE,129,3.0,11.0,58,-99.99,,,-99.99,,2013-03-04 06:42:00,
2013-03-04 06:51:00,32.0,20.0,-100.00,SE,137,5.0,10.0,60,-99.99,,,-99.99,,2013-03-04 06:51:00,
2013-03-04 07:01:00,32.0,19.0,-100.00,South,173,9.0,18.0,59,-99.99,,,-99.99,,2013-03-04 07:01:00,
2013-03-04 07:11:00,32.0,19.0,-100.00,South,173,9.0,18.0,59,-99.99,,,-99.99,,2013-03-04 07:11:00,
2013-03-04 07:21:00,32.0,19.0,-100.00,South,173,9.0,18.0,59,-99.99,,,-99.99,,2013-03-04 07:21:00,
2013-03-04 07:32:00,32.0,19.0,-100.00,East,86,3.0,9.0,58,-99.99,,,-99.99,,2013-03-04 07:32:00,
2013-03-04 07:42:00,32.0,19.0,-100.00,East,86,3.0,9.0,58,-99.99,,,-99.99,,2013-03-04 07:42:00,
2013-03-04 07:52:00,32.0,19.0,-100.00,SE,142,2.0,9.0,58,-99.99,,,-99.99,,2013-03-04 07:52:00,
2013-03-04 08:01:00,32.0,19.0,-100.00,SE,142,2.0,9.0,58,-99.99,,,-99.99,,2013-03-04 08:01:00,
2013-03-04 08:11:00,32.0,19.0,-100.00,SE,142,2.0,9.0,58,-99.99,,,-99.99,,2013-03-04 08:11:00,
2013-03-04 08:21:00,33.0,19.0,-100.00,SE,146,3.0,18.0,55,-99.99,,,-99.99,,2013-03-04 08:21:00,
2013-03-04 08:31:00,33.0,19.0,-100.00,SE,144,5.0,13.0,55,-99.99,,,-99.99,,2013-03-04 08:31:00,
2013-03-04 08:41:00,33.0,19.0,-100.00,SE,144,5.0,13.0,55,-99.99,,,-99.99,,2013-03-04 08:41:00,
2013-03-04 08:52:00,33.0,18.0,-100.00,SSE,164,4.0,16.0,54,-99.99,,,-99.99,,2013-03-04 08:52:00,
2013-03-04 09:01:00,33.0,19.0,-100.00,SE,132,2.0,9.0,56,-99.99,,,-99.99,,2013-03-04 09:01:00,
2013-03-04 09:11:00,33.0,19.0,-100.00,SE,132,2.0,9.0,56,-99.99,,,-99.99,,2013-03-04 09:11:00,
2013-03-04 09:21:00,32.0,19.0,-100.00,SSE,155,5.0,19.0,57,-99.99,,,-99.99,,2013-03-04 09:21:00,
2013-03-04 09:31:00,33.0,19.0,-100.00,SSE,154,7.0,21.0,55,-99.99,,,-99.99,,2013-03-04 09:31:00,
2013-03-04 09:42:00,33.0,19.0,-100.00,SSE,154,7.0,21.0,55,-99.99,,,-99.99,,2013-03-04 09:42:00,
2013-03-04 09:51:00,33.0,19.0,-100.00,SSE,154,7.0,21.0,55,-99.99,,,-99.99,,2013-03-04 09:51:00,
2013-03-04 10:01:00,33.0,19.0,-100.00,SSE,167,2.0,8.0,56,-99.99,,,-99.99,,2013-03-04 10:01:00,
2013-03-04 10:11:00,33.0,19.0,-100.00,SSE,167,2.0,8.0,56,-99.99,,,-99.99,,2013-03-04 10:11:00,
2013-03-04 10:21:00,33.0,19.0,-100.00,South,183,4.0,9.0,56,-99.99,,,-99.99,,2013-03-04 10:21:00,
2013-03-04 10:31:00,33.0,19.0,-100.00,SE,137,4.0,12.0,56,-99.99,,,-99.99,,2013-03-04 10:31:00,
2013-03-04 10:42:00,33.0,19.0,-100.00,SE,137,4.0,12.0,56,-99.99,,,-99.99,,2013-03-04 10:42:00,
2013-03-04 10:52:00,32.0,32.0,-100.00,SSE,149,6.0,18.0,100,-99.99,,,-99.99,,2013-03-04 10:52:00,
2013-03-04 11:01:00,33.0,19.0,-100.00,South,176,7.0,20.0,57,-99.99,,,-99.99,,2013-03-04 11:01:00,
2013-03-04 11:11:00,33.0,19.0,-100.00,South,176,7.0,20.0,57,-99.99,,,-99.99,,2013-03-04 11:11:00,
2013-03-04 11:21:00,33.0,20.0,-100.00,SW,215,5.0,13.0,58,-99.99,,,-99.99,,2013-03-04 11:21:00,
2013-03-04 11:31:00,32.0,32.0,-100.00,NNE,14,7.0,0.0,100,-99.99,,,-99.99,,2013-03-04 11:31:00,
2013-03-04 11:52:00,32.0,20.0,-100.00,ESE,123,8.0,17.0,61,-99.99,,,-99.99,,2013-03-04 11:52:00,
2013-03-04 12:01:00,32.0,20.0,-100.00,ESE,123,8.0,17.0,61,-99.99,,,-99.99,,2013-03-04 12:01:00,
2013-03-04 12:11:00,32.0,20.0,-100.00,ESE,123,8.0,17.0,61,-99.99,,,-99.99,,2013-03-04 12:11:00,
2013-03-04 12:22:00,32.0,19.0,-100.00,SE,133,8.0,19.0,59,-99.99,,,-99.99,,2013-03-04 12:22:00,
2013-03-04 12:32:00,33.0,19.0,-100.00,ESE,114,10.0,20.0,55,-99.99,,,-99.99,,2013-03-04 12:32:00,
2013-03-04 12:42:00,33.0,19.0,-100.00,ESE,114,10.0,20.0,55,-99.99,,,-99.99,,2013-03-04 12:42:00,
2013-03-04 12:52:00,32.0,19.0,-100.00,ESE,120,12.0,28.0,58,-99.99,,,-99.99,,2013-03-04 12:52:00,
2013-03-04 13:02:00,32.0,19.0,-100.00,ESE,120,12.0,28.0,58,-99.99,,,-99.99,,2013-03-04 13:02:00,
2013-03-04 13:11:00,32.0,19.0,-100.00,ESE,120,12.0,28.0,58,-99.99,,,-99.99,,2013-03-04 13:11:00,
2013-03-04 13:21:00,32.0,19.0,-100.00,ESE,120,12.0,28.0,58,-99.99,,,-99.99,,2013-03-04 13:21:00,
2013-03-04 13:52:00,32.0,20.0,-100.00,ESE,116,14.0,31.0,62,-99.99,,,-99.99,,2013-03-04 13:52:00,
2013-03-04 14:01:00,32.0,21.0,-100.00,ESE,109,12.0,28.0,63,-99.99,,,-99.99,,2013-03-04 14:01:00,
2013-03-04 14:11:00,32.0,21.0,-100.00,ESE,109,12.0,28.0,63,-99.99,,,-99.99,,2013-03-04 14:11:00,
2013-03-04 14:22:00,31.0,20.0,-100.00,ESE,104,15.0,33.0,64,-99.99,,,-99.99,,2013-03-04 14:22:00,
2013-03-04 14:32:00,31.0,20.0,-100.00,ESE,106,15.0,33.0,64,-99.99,,,-99.99,,2013-03-04 14:32:00,
2013-03-04 14:41:00,31.0,20.0,-100.00,ESE,106,15.0,33.0,64,-99.99,,,-99.99,,2013-03-04 14:41:00,
2013-03-04 14:52:00,32.0,32.0,-100.00,ESE,109,13.0,33.0,100,-99.99,,,-99.99,,2013-03-04 14:52:00,
2013-03-04 15:01:00,31.0,20.0,-100.00,ESE,111,12.0,30.0,63,-99.99,,,-99.99,,2013-03-04 15:01:00,
2013-03-04 15:11:00,31.0,20.0,-100.00,ESE,111,12.0,30.0,63,-99.99,,,-99.99,,2013-03-04 15:11:00,
2013-03-04 15:21:00,31.0,19.0,-100.00,ESE,117,13.0,29.0,61,-99.99,,,-99.99,,2013-03-04 15:21:00,
2013-03-04 15:31:00,31.0,19.0,-100.00,ESE,117,13.0,29.0,61,-99.99,,,-99.99,,2013-03-04 15:31:00,
2013-03-04 15:42:00,31.0,19.0,-100.00,ESE,117,13.0,29.0,61,-99.99,,,-99.99,,2013-03-04 15:42:00,
2013-03-04 15:51:00,32.0,19.0,-100.00,ESE,117,13.0,28.0,58,-99.99,,,-99.99,,2013-03-04 15:51:00,
2013-03-04 16:02:00,32.0,19.0,-100.00,ESE,117,13.0,28.0,58,-99.99,,,-99.99,,2013-03-04 16:02:00,
2013-03-04 16:11:00,32.0,19.0,-100.00,ESE,117,13.0,28.0,58,-99.99,,,-99.99,,2013-03-04 16:11:00,
2013-03-04 16:52:00,31.0,20.0,-100.00,ESE,105,14.0,29.0,64,-99.99,,,-99.99,,2013-03-04 16:52:00,
2013-03-04 17:02:00,31.0,20.0,-100.00,ESE,111,14.0,27.0,64,-99.99,,,-99.99,,2013-03-04 17:02:00,
2013-03-04 17:11:00,31.0,20.0,-100.00,ESE,111,14.0,27.0,64,-99.99,,,-99.99,,2013-03-04 17:11:00,
2013-03-04 17:21:00,31.0,20.0,-100.00,ESE,118,13.0,36.0,62,-99.99,,,-99.99,,2013-03-04 17:21:00,
2013-03-04 17:31:00,31.0,20.0,-100.00,ESE,116,13.0,26.0,64,-99.99,,,-99.99,,2013-03-04 17:31:00,
2013-03-04 17:42:00,31.0,20.0,-100.00,ESE,116,13.0,26.0,64,-99.99,,,-99.99,,2013-03-04 17:42:00,
2013-03-04 17:52:00,31.0,21.0,-100.00,ESE,111,12.0,26.0,65,-99.99,,,-99.99,,2013-03-04 17:52:00,
2013-03-04 18:01:00,31.0,21.0,-100.00,ESE,111,12.0,26.0,65,-99.99,,,-99.99,,2013-03-04 18:01:00,
2013-03-04 18:11:00,31.0,21.0,-100.00,ESE,111,12.0,26.0,65,-99.99,,,-99.99,,2013-03-04 18:11:00,
2013-03-04 18:21:00,31.0,21.0,-100.00,ESE,111,12.0,26.0,65,-99.99,,,-99.99,,2013-03-04 18:21:00,
2013-03-04 18:52:00,31.0,20.0,-100.00,ESE,112,11.0,28.0,64,-99.99,,,-99.99,,2013-03-04 18:52:00,
2013-03-04 19:01:00,31.0,20.0,-100.00,ESE,111,11.0,24.0,63,-99.99,,,-99.99,,2013-03-04 19:01:00,
2013-03-04 19:11:00,31.0,20.0,-100.00,ESE,111,11.0,24.0,63,-99.99,,,-99.99,,2013-03-04 19:11:00,
2013-03-04 19:21:00,32.0,20.0,-100.00,ESE,113,9.0,23.0,62,-99.99,,,-99.99,,2013-03-04 19:21:00,
2013-03-04 19:32:00,32.0,20.0,-100.00,ESE,113,9.0,20.0,62,-99.99,,,-99.99,,2013-03-04 19:32:00,
2013-03-04 19:42:00,32.0,20.0,-100.00,ESE,113,9.0,20.0,62,-99.99,,,-99.99,,2013-03-04 19:42:00,
2013-03-04 19:51:00,32.0,20.0,-100.00,ESE,108,8.0,20.0,60,-99.99,,,-99.99,,2013-03-04 19:51:00,
2013-03-04 20:01:00,32.0,20.0,-100.00,ESE,108,8.0,20.0,60,-99.99,,,-99.99,,2013-03-04 20:01:00,
2013-03-04 20:11:00,32.0,20.0,-100.00,ESE,108,8.0,20.0,60,-99.99,,,-99.99,,2013-03-04 20:11:00,
2013-03-04 20:21:00,33.0,21.0,-100.00,ESE,110,11.0,21.0,60,-99.99,,,-99.99,,2013-03-04 20:21:00,
2013-03-04 20:32:00,33.0,21.0,-100.00,ESE,110,11.0,21.0,60,-99.99,,,-99.99,,2013-03-04 20:32:00,
2013-03-04 20:42:00,33.0,21.0,-100.00,ESE,110,11.0,21.0,60,-99.99,,,-99.99,,2013-03-04 20:42:00,
2013-03-04 20:52:00,34.0,21.0,-100.00,ESE,110,8.0,20.0,58,-99.99,,,-99.99,,2013-03-04 20:52:00,
2013-03-04 21:01:00,35.0,20.0,-100.00,West,260,0.0,10.0,54,-99.99,,,-99.99,,2013-03-04 21:01:00,
2013-03-04 21:11:00,35.0,20.0,-100.00,West,260,0.0,10.0,54,-99.99,,,-99.99,,2013-03-04 21:11:00,
2013-03-04 21:21:00,35.0,20.0,-100.00,West,260,0.0,10.0,54,-99.99,,,-99.99,,2013-03-04 21:21:00,
2013-03-04 21:32:00,35.0,20.0,-100.00,West,260,0.0,10.0,54,-99.99,,,-99.99,,2013-03-04 21:32:00,
2013-03-04 21:52:00,37.0,21.0,-100.00,SW,215,1.0,7.0,51,-99.99,,,-99.99,,2013-03-04 21:52:00,
2013-03-04 22:01:00,36.0,21.0,-100.00,SW,215,0.0,5.0,53,-99.99,,,-99.99,,2013-03-04 22:01:00,
2013-03-04 22:11:00,36.0,21.0,-100.00,SW,215,0.0,5.0,53,-99.99,,,-99.99,,2013-03-04 22:11:00,
2013-03-04 22:21:00,36.0,20.0,-100.00,ESE,123,0.0,4.0,52,-99.99,,,-99.99,,2013-03-04 22:21:00,
2013-03-04 22:32:00,36.0,21.0,-100.00,ESE,121,2.0,7.0,53,-99.99,,,-99.99,,2013-03-04 22:32:00,
2013-03-04 22:42:00,36.0,21.0,-100.00,ESE,121,2.0,7.0,53,-99.99,,,-99.99,,2013-03-04 22:42:00,
2013-03-04 22:51:00,36.0,21.0,-100.00,ESE,122,3.0,8.0,54,-99.99,,,-99.99,,2013-03-04 22:51:00,
2013-03-04 23:01:00,36.0,21.0,-100.00,SE,138,2.0,9.0,53,-99.99,,,-99.99,,2013-03-04 23:01:00,
2013-03-04 23:11:00,36.0,21.0,-100.00,SE,138,2.0,9.0,53,-99.99,,,-99.99,,2013-03-04 23:11:00,
2013-03-04 23:21:00,37.0,21.0,-100.00,South,170,2.0,7.0,51,-99.99,,,-99.99,,2013-03-04 23:21:00,
2013-03-04 23:32:00,38.0,22.0,-100.00,West,261,2.0,7.0,51,-99.99,,,-99.99,,2013-03-04 23:32:00,
2013-03-04 23:41:00,38.0,22.0,-100.00,West,261,2.0,7.0,51,-99.99,,,-99.99,,2013-03-04 23:41:00,
2013-03-04 23:52:00,38.0,21.0,-100.00,South,181,0.0,3.0,50,-99.99,,,-99.99,,2013-03-04 23:52:00,